Zurück zum Katalog

TITAN 3C TRANSTAGE DEB

LostHEO
NORAD 28836·DEBRIS·🇺🇸 United States

Gestartet Dec 21, 1965 von Cape Canaveral Space Force Station

Loading…

Nächste Überflüge (nächste 24 Stunden)

TLE

VeraltetSource: Space-Track

Epoche: Apr 18, 2026, 20:32 UTC

1 28836U 65108CN  26108.85589171  .00000022  00000-0  65673-3 0  9992
2 28836  26.9590 315.9641 6825202 162.3238 353.1304  2.67582655211187

Verfolge TITAN 3C TRANSTAGE DEB in Echtzeit mit AllMySat

Download on the App Store